Regional Weather Roundup
Issued by NWS Green Bay, WI

Home | Current Version | Previous Version | Graphics & Text | Print | Product List | Glossary Off
Versions: 1 2 3 4 5 6 7 8 9 10 11 12 13 14 15 16 17 18 19 20 21 22 23 24 25 26 27 28 29 30 31 32 33 34 35 36 37 38 39 40 41 42 43 44 45 46 47 48 49 50

000
ASUS43 KGRB 280559
RWRGRB

NORTH-CENTRAL AND NORTHEAST WISCONSIN REGIONAL WEATHER ROUNDUP
NATIONAL WEATHER SERVICE GREEN BAY WI
100 AM CDT THU AUG 28 2014

WIZ005-009-010>012-018-019-280700-
NORTH CENTRAL WISCONSIN

CITY           SKY/WX    TMP DP  RH WIND       PRES   REMARKS
IRONWOOD       NOT AVBL
MANITOWISH WTR NOT AVBL
ARBOR VITAE    NOT AVBL
EAGLE RIVER    NOT AVBL
LAND O LAKES   NOT AVBL
RHINELANDER      N/A     47  45  93 CALM      30.20S
PHILLIPS       NOT AVBL
ANTIGO         NOT AVBL
TOMAHAWK       NOT AVBL
MERRILL        NOT AVBL
$$

WIZ013-073-280700-
NORTHEAST WISCONSIN

CITY           SKY/WX    TMP DP  RH WIND       PRES   REMARKS
IRON MOUNTAIN    N/A     49  45  86 CALM      30.18S
MARINETTE        N/A     63  54  72 S8        30.17S
$$

WIZ017-030-035>037-045-280700-
CENTRAL WISCONSIN

CITY           SKY/WX    TMP DP  RH WIND       PRES   REMARKS
MEDFORD        NOT AVBL
WAUSAU           N/A     57  48  72 N3        30.17R
MOSINEE        NOT AVBL
MARSHFIELD       N/A     59  51  75 NE6       30.17R
WISC RAPIDS      N/A     57  54  89 CALM      30.17S
STEVENS POINT  NOT AVBL
WAUPACA        NOT AVBL
SHAWANO          N/A     60  57  91 CALM      30.17R
CLINTONVILLE   NOT AVBL
$$

WIZ038-039-048-051-280700-
FOX VALLEY

CITY           SKY/WX    TMP DP  RH WIND       PRES   REMARKS
NWS GREEN BAY    N/A     55  54  96 CALM      30.16R
APPLETON       NOT AVBL
OSHKOSH          N/A     58  56  93 S3        30.16R
FOND DU LAC      N/A     59  55  87 S3        30.16S
$$

WIZ022-050-052-280700-
EAST CENTRAL WISCONSIN

CITY           SKY/WX    TMP DP  RH WIND       PRES   REMARKS
STURGEON BAY   MOCLDY    57  54  88 E5        30.18S
MANITOWOC      NOT AVBL
SHEBOYGAN        N/A     54  53  97 CALM      30.16S FOG
$$

LMZ563-521-522-541>543-280700-
LAKESHORE

STATION/POSITION TIME  TEMP    WIND        PRES    VSBY  WAVE
                       AIR SEA DIR/SP/G                  HT/PER
                 (UTC) (F)     (DEG/KT/KT) (MB)    (MI)  (FT/S)
SHEBOYGAN LKSHOR 0500   66 69  150/  6/  7 1021.3S
KEWAUNEE LKSHORE 0500   64     100/  6/ 10 1020.5R
NORTHPORT PIER   0500   64     100/  7/ 11 1021.7R
N MID LAKE BUOY  0500   63 65   70/  8/ 10 1021.6R         1/ 3
S GREEN BAY BUOY 0500   64     VRB 10/ 12  1022.4R
SISTER BAY LKSHO 0500   59        CALM       N/A
CHAMBERS ISLAND  0500   62     120/  1/  6 1022.4R
MENOMINEE LKSHOR 0500   64     120/  9/ 12 1022.2R
$$



USA.gov is the U.S. government's official web portal to all federal, state and local government web resources and services.